Date String (YYYY-MM-DD hh:mm:ss) UTC,Instrument flags,Ambient pressure (hPa),Sample flow (lpm),Bypass flow (lpm),Sample temperature (°C),Ambient temperature (°C),ASC tube jacket temperature (°C),LED temperature (°C),Box temperature (°C),Sample RH (%),Span deviation,Mass concentration (μg/m³),Mass concentration (μg/m³),Mass concentration (μg/m³)
DateTimeUTC,F1_M11,P_M11,Q1_M11,Q2_M11,T1_M11,T2_M11,T3_M11,T4_M11,T5_M11,U1_M11,ZSPAN_M11,X0_M11,X2_M11,X1_M11
2022-01-21 17:00:00,,0827.5,4.99,0.00,22.3,21.6,00.0,31.4,24.0,13.0,-000.9,0007.87,0004.78,0004.48
2022-01-21 17:01:00,,0827.4,5.01,0.00,22.3,21.6,00.0,31.4,24.0,12.5,-000.6,0007.78,0004.73,0004.44
2022-01-21 17:02:00,,0827.2,4.99,0.00,22.3,21.6,00.0,31.4,24.0,12.6,-001.2,0007.75,0004.72,0004.42
2022-01-21 17:03:00,,0827.3,5.02,0.00,22.3,21.5,00.0,31.3,24.0,12.6,-000.9,0007.70,0004.67,0004.39
2022-01-21 17:04:00,,0827.3,4.98,0.00,22.3,21.5,00.0,31.3,23.9,12.7,-001.1,0008.11,0004.65,0004.37
2022-01-21 17:05:00,,0827.3,5.02,0.00,22.2,21.5,00.0,31.3,23.9,12.7,-001.3,0008.17,0004.69,0004.39
2022-01-21 17:06:00,,0827.3,4.98,0.00,22.2,21.5,00.0,31.3,23.9,12.7,-001.4,0008.16,0004.71,0004.41
2022-01-21 17:07:00,,0827.3,5.01,0.00,22.2,21.5,00.0,31.3,23.9,13.0,-001.3,0008.24,0004.77,0004.47
2022-01-21 17:08:00,,0827.4,4.99,0.00,22.3,22.0,00.0,31.3,24.0,13.3,-001.3,0008.42,0004.88,0004.55
2022-01-21 17:09:00,,0827.4,4.99,0.00,22.4,22.8,00.0,31.3,24.3,13.5,-001.2,0008.28,0004.94,0004.63
2022-01-21 17:10:00,,0827.4,5.00,0.00,22.5,23.3,00.0,31.4,24.5,13.7,-001.1,0008.34,0005.06,0004.74
2022-01-21 17:11:00,,0827.4,5.00,0.00,22.6,23.1,00.0,31.4,24.6,13.9,-001.4,0008.57,0005.21,0004.87
2022-01-21 17:12:00,,0827.4,5.01,0.00,22.6,22.9,00.0,31.4,24.6,14.3,-001.6,0009.26,0005.39,0005.04
2022-01-21 17:13:00,,0827.4,4.99,0.00,22.6,22.8,00.0,31.4,24.5,14.8,-001.4,0009.76,0005.66,0005.27
2022-01-21 17:14:00,,0827.4,5.01,0.00,22.6,22.6,00.0,31.4,24.5,15.0,-001.6,0010.21,0006.01,0005.60
2022-01-21 17:15:00,,0827.4,4.99,0.00,22.6,22.5,00.0,31.4,24.5,15.0,-001.7,0010.30,0006.28,0005.87
2022-01-21 17:16:00,,0827.5,5.01,0.00,22.6,22.4,00.0,31.5,24.4,14.9,-001.9,0010.99,0006.56,0006.14
2022-01-21 17:17:00,,0827.5,4.99,0.00,22.6,22.3,00.0,31.5,24.4,15.1,-001.9,0011.59,0007.04,0006.62
2022-01-21 17:18:00,,0827.6,5.00,0.00,22.6,22.2,00.0,31.5,24.4,15.2,-001.5,0012.37,0007.54,0007.09
2022-01-21 17:19:00,,0827.7,5.00,0.00,22.6,22.1,00.0,31.5,24.3,15.0,-001.5,0013.39,0007.91,0007.48
2022-01-21 17:20:00,,0827.7,4.99,0.00,22.6,22.1,00.0,31.5,24.3,14.5,-001.5,0013.89,0008.20,0007.72
2022-01-21 17:21:00,,0827.7,5.01,0.00,22.6,22.0,00.0,31.5,24.3,14.1,-001.6,0014.24,0008.41,0007.91
2022-01-21 17:22:00,,0827.8,4.99,0.00,22.6,22.0,00.0,31.5,24.3,14.3,-001.7,0014.61,0008.67,0008.13
2022-01-21 17:23:00,,0827.8,5.02,0.00,22.6,22.0,00.0,31.5,24.3,14.8,-001.7,0015.11,0009.00,0008.42
2022-01-21 17:24:00,,0827.8,4.98,0.00,22.6,21.9,00.0,31.5,24.3,15.2,-001.8,0015.36,0009.20,0008.65
2022-01-21 17:25:00,,0827.8,5.02,0.00,22.6,21.9,00.0,31.5,24.3,15.3,-001.8,0015.56,0009.34,0008.79
2022-01-21 17:26:00,,0827.9,5.00,0.00,22.6,21.9,00.0,31.5,24.3,15.0,-001.8,0015.55,0009.47,0008.90
2022-01-21 17:27:00,,0827.9,4.99,0.00,22.6,21.9,00.0,31.5,24.3,14.7,-001.7,0015.35,0009.56,0008.97
2022-01-21 17:28:00,,0828.2,5.01,0.00,22.5,21.9,00.0,31.5,24.3,14.8,-001.7,0015.50,0009.45,0008.82
2022-01-21 17:29:00,,0828.0,4.98,0.00,22.5,21.9,00.0,31.5,24.3,15.1,-002.0,0015.31,0009.33,0008.69
2022-01-21 17:30:00,,0828.1,5.02,0.00,22.5,21.9,00.0,31.5,24.3,15.6,-002.1,0015.02,0009.45,0008.77
2022-01-21 17:31:00,,0828.1,4.98,0.00,22.5,21.9,00.0,31.5,24.3,15.8,-002.0,0015.23,0009.68,0009.04
2022-01-21 17:32:00,,0828.2,5.02,0.00,22.5,21.9,00.0,31.5,24.3,15.9,-001.8,0015.40,0009.87,0009.25
2022-01-21 17:33:00,,0828.2,4.99,0.00,22.5,21.8,00.0,31.5,24.3,15.7,-001.7,0015.59,0009.90,0009.28
2022-01-21 17:34:00,,0828.3,5.02,0.00,22.5,21.8,00.0,31.4,24.3,15.4,-001.8,0015.20,0009.74,0009.11
2022-01-21 17:35:00,,0828.4,4.99,0.00,22.5,21.8,00.0,31.5,24.3,15.1,-001.7,0014.92,0009.54,0008.91
2022-01-21 17:36:00,,0828.3,5.01,0.00,22.5,21.8,00.0,31.4,24.2,15.0,-001.7,0014.83,0009.29,0008.66
2022-01-21 17:37:00,,0828.4,5.00,0.00,22.5,21.8,00.0,31.4,24.2,15.1,-001.8,0015.19,0009.11,0008.48
2022-01-21 17:38:00,,0828.3,5.00,0.00,22.5,21.8,00.0,31.4,24.2,15.1,-002.0,0015.18,0008.94,0008.32
2022-01-21 17:39:00,,0828.5,5.00,0.00,22.5,21.8,00.0,31.4,24.2,15.1,-002.2,0015.59,0008.77,0008.14
2022-01-21 17:40:00,,0828.4,5.00,0.00,22.4,21.8,00.0,31.4,24.2,14.9,-002.1,0015.70,0008.57,0007.91
2022-01-21 17:41:00,,0828.5,4.98,0.00,22.4,21.8,00.0,31.4,24.2,14.6,-002.1,0015.38,0008.20,0007.52
2022-01-21 17:42:00,,0828.9,5.02,0.00,22.4,21.8,00.0,31.4,24.1,14.7,-002.3,0014.90,0007.74,0007.05
2022-01-21 17:43:00,,0829.0,4.98,0.00,22.4,21.8,00.0,31.4,24.1,15.1,-002.7,0014.99,0007.40,0006.67
2022-01-21 17:44:00,,0828.9,5.02,0.00,22.4,21.8,00.0,31.4,24.1,15.3,-002.8,0014.62,0007.17,0006.42
2022-01-21 17:45:00,,0828.9,4.98,0.00,22.4,21.7,00.0,31.4,24.1,15.1,-002.8,0014.21,0007.00,0006.25
2022-01-21 17:46:00,,0828.4,5.02,0.00,22.4,21.7,00.0,31.4,24.1,14.8,-002.7,0014.12,0006.87,0006.08
2022-01-21 17:47:00,,0828.5,4.98,0.00,22.4,21.7,00.0,31.4,24.1,14.8,-002.8,0014.20,0006.76,0005.95
2022-01-21 17:48:00,,0828.4,5.01,0.00,22.4,21.7,00.0,31.4,24.1,14.2,-002.5,0013.59,0006.67,0005.83
2022-01-21 17:49:00,,0828.5,4.99,0.00,22.3,21.7,00.0,31.4,24.1,13.8,-002.3,0013.36,0006.53,0005.70
2022-01-21 17:50:00,,0828.5,5.00,0.00,22.3,21.7,00.0,31.4,24.1,13.8,-002.2,0012.48,0006.43,0005.61
2022-01-21 17:51:00,,0828.5,5.00,0.00,22.3,21.7,00.0,31.3,24.1,13.8,-002.2,0012.00,0006.31,0005.53
2022-01-21 17:52:00,,0828.5,5.00,0.00,22.3,21.7,00.0,31.3,24.1,14.3,-001.8,0011.59,0006.19,0005.46
2022-01-21 17:53:00,,0828.5,5.00,0.00,22.3,21.7,00.0,31.3,24.1,14.4,-001.4,0011.38,0006.10,0005.42
2022-01-21 17:54:00,,0828.5,4.99,0.00,22.3,21.7,00.0,31.3,24.1,14.1,-001.4,0011.50,0006.06,0005.40
2022-01-21 17:55:00,,0828.9,5.01,0.00,22.3,21.8,00.0,31.3,24.1,13.0,-001.3,0011.57,0006.14,0005.50
2022-01-21 17:56:00,,0829.1,4.99,0.00,22.4,22.5,00.0,31.4,24.3,12.4,-001.3,0011.64,0006.28,0005.65
2022-01-21 17:57:00,,0828.6,4.99,0.00,22.6,23.2,00.0,31.4,24.5,12.5,-001.2,0011.84,0006.37,0005.77
2022-01-21 17:58:00,,0828.6,5.00,0.00,22.7,23.3,00.0,31.4,24.7,13.0,-000.9,0011.84,0006.40,0005.85
2022-01-21 17:59:00,,0828.7,5.00,0.00,22.7,23.1,00.0,31.5,24.7,13.7,-000.9,0011.71,0006.36,0005.89
